ENBN Weather Reports


time (UTC)temp
C
wind
direction
speed
KPH
gust
KPH
rain 1hr
cm
rain 24hr
cm
rain mn
cm
humidity
%
barometer
mb
20260504150308 3 360 16.1 0.0 0.00 0.00 0.00 80 999.0
20260504140309 5 350 14.5 0.0 0.00 0.00 0.00 75 999.0
20260504130308 3 360 11.3 0.0 0.00 0.00 0.00 80 999.0
20260504120308 3 270 14.5 0.0 0.00 0.00 0.00 80 999.0
20260504110307 3 260 24.1 0.0 0.00 0.00 0.00 80 998.0
20260504100307 5 220 20.9 0.0 0.00 0.00 0.00 80 998.0
20260504080307 2 260 20.9 0.0 0.00 0.00 0.00 93 998.0
20260504070308 3 230 33.8 0.0 0.00 0.00 0.00 86 995.0
20260504050307 2 160 20.9 0.0 0.00 0.00 0.00 86 996.0
20260504043309 2 180 22.5 0.0 0.00 0.00 0.00 86 997.0
20260504040307 2 190 22.5 0.0 0.00 0.00 0.00 86 997.0
20260504033306 3 180 22.5 0.0 0.00 0.00 0.00 75 997.0
20260504030307 5 170 24.1 0.0 0.00 0.00 0.00 70 998.0
20260504023308 5 170 24.1 0.0 0.00 0.00 0.00 70 998.0
20260504020307 5 170 27.4 0.0 0.00 0.00 0.00 70 999.0
20260504013308 5 180 24.1 0.0 0.00 0.00 0.00 65 999.0
20260504010308 5 180 25.7 0.0 0.00 0.00 0.00 65 1000.0
20260504003307 5 180 24.1 0.0 0.00 0.00 0.00 65 1000.0
20260504000308 5 190 24.1 0.0 0.00 0.00 0.00 65 1000.0
20260503233306 5 190 24.1 0.0 0.00 0.00 0.00 65 1001.0
20260503230308 5 190 24.1 0.0 0.00 0.00 0.00 65 1001.0
20260503223308 5 190 27.4 0.0 0.00 0.00 0.00 70 1002.0
20260503220308 5 200 29.0 0.0 0.00 0.00 0.00 65 1002.0
20260503213306 5 210 32.2 0.0 0.00 0.00 0.00 70 1003.0
20260503210306 5 220 35.4 0.0 0.00 0.00 0.00 70 1003.0
20260503203306 5 220 33.8 0.0 0.00 0.00 0.00 70 1003.0
20260503200309 5 210 29.0 0.0 0.00 0.00 0.00 60 1004.0
20260503193308 5 190 25.7 0.0 0.00 0.00 0.00 60 1004.0
20260503190310 5 190 25.7 48.3 0.00 0.00 0.00 65 1004.0
20260503183309 5 180 20.9 0.0 0.00 0.00 0.00 65 1004.0
20260503180309 5 200 27.4 0.0 0.00 0.00 0.00 65 1005.0
20260503173308 5 200 25.7 0.0 0.00 0.00 0.00 65 1005.0
20260503170307 5 210 33.8 0.0 0.00 0.00 0.00 65 1005.0